Flag for China Weather past 2 weeks in Guangzhou, Guangdong, China

Now
54 °F

Fog.


Feels Like: 54 °F
Forecast: 56 / 68 °F
Wind: 1 mph from North

Location: Canton Airport

Current Time: Mar 4, 2015 at 9:54:03 PM

Latest Report: Mar 4, 2015 at 9:30 PM


Visibility: 2 mi

Pressure: 30.04 "Hg

Humidity: 100%

Dew point: 54 °F

Location of GuangzhouLocation

Historic Weather in Guangzhou — Graph

°F

Guangzhou temperature yesterday

Maximum temperature yesterday: 64 °F (at 5:00 AM)
Minimum temperature yesterday: 55 °F (at 10:30 PM)
Average temperature yesterday: 62 °F

Past Weeks' High & Low Weather Summary

 TemperatureHumidityPressure
High82 °F (Feb 26, 3:00 PM)100% (Feb 21, 11:30 PM)30.24 "Hg (Feb 21, 11:30 PM)
Low54 °F (Mar 4, 5:30 PM)52% (Mar 1, 1:30 PM)29.83 "Hg (Feb 24, 3:30 PM)
Average68 °F80%29.99 "Hg
* Reported Feb 17 8:00 PM — Mar 4 8:30 PM, Guangzhou, Weather by CustomWeather, © 2015

Note: Actual official high and low records may vary slightly from our data, if they occured in-between our weather recording intervals... More about our weather records

Advertising

Guangzhou weather history for previous 24 hours

 ConditionsComfort  
Time TempWeatherWind HumidityBarometerVisibility
8:30 PM
Wed, Mar 4
54 °FFog.3 mph100%30.04 "Hg2 mi
8:00 PM55 °FDrizzle. Fog.3 mph94%30.01 "Hg2 mi
7:30 PM55 °FDrizzle. Fog.1 mph94%30.01 "Hg2 mi
7:00 PM54 °FDrizzle. Fog.3 mph100%30.01 "Hg2 mi
6:30 PM54 °FDrizzle. Fog.3 mph100%29.98 "Hg2 mi
6:00 PM54 °FDrizzle. Fog.3 mph100%29.98 "Hg2 mi
5:30 PM54 °FDrizzle. Fog.3 mph100%29.98 "Hg2 mi
5:00 PM55 °FLight rain. Fog.3 mph94%29.98 "Hg2 mi
4:30 PM55 °FLight rain. Fog.3 mph94%29.98 "Hg2 mi
4:00 PM55 °FLight rain. Fog.3 mph94%29.98 "Hg2 mi
3:30 PM55 °FFog.3 mph94%29.98 "Hg2 mi
3:00 PM55 °FFog.3 mph94%29.98 "Hg2 mi
2:30 PM55 °FLight rain. Fog.3 mph88%29.98 "Hg2 mi
2:00 PM55 °FLight rain. More clouds than sun.6 mph88%30.01 "Hg4 mi
1:30 PM55 °FMore clouds than sun.3 mph88%30.01 "Hg4 mi
1:00 PM55 °FMore clouds than sun.1 mph88%30.04 "Hg4 mi
12:30 PM55 °FMore clouds than sun.3 mph88%30.04 "Hg4 mi
12:00 PM55 °FOvercast.6 mph88%30.04 "HgN/A
11:30 AM55 °FOvercast.6 mph82%30.07 "HgN/A
11:00 AM57 °FOvercast.6 mph77%30.07 "HgN/A
10:30 AM57 °FOvercast.3 mph77%30.07 "HgN/A
10:00 AM57 °FOvercast.6 mph77%30.07 "HgN/A
9:30 AM57 °FOvercast.3 mph77%30.07 "HgN/A
9:00 AM55 °FOvercast.6 mph82%30.04 "HgN/A
8:30 AM55 °FOvercast.3 mph82%30.04 "HgN/A
8:00 AM55 °FOvercast.3 mph82%30.04 "HgN/A
7:30 AM55 °FOvercast.3 mph82%30.01 "HgN/A
7:00 AM55 °FOvercast.3 mph82%30.01 "HgN/A
6:30 AM55 °FOvercast.3 mph82%29.98 "HgN/A
6:00 AM55 °FOvercast.6 mph82%29.98 "HgN/A
5:30 AM55 °FOvercast.8 mph82%29.98 "HgN/A
5:00 AM55 °FOvercast.8 mph82%29.95 "HgN/A
4:30 AM55 °FOvercast.8 mph82%29.95 "HgN/A
3:30 AM55 °FOvercast.6 mph88%29.95 "HgN/A
3:00 AM55 °FOvercast.8 mph88%29.95 "HgN/A
2:30 AM55 °FOvercast.6 mph88%29.95 "HgN/A
2:00 AM55 °FOvercast.8 mph88%29.95 "HgN/A
1:30 AM55 °FOvercast.8 mph88%29.95 "HgN/A
1:00 AM55 °FOvercast.10 mph88%29.95 "HgN/A
12:30 AM55 °FOvercast.10 mph88%29.98 "HgN/A
12:00 AM55 °FLow clouds.10 mph88%29.98 "HgN/A
11:30 PM
Tue, Mar 3
55 °FLight rain. Low clouds.13 mph88%29.98 "HgN/A
11:00 PM55 °FLight rain. Overcast.10 mph94%29.95 "HgN/A
10:30 PM55 °FLight rain. Mostly cloudy.8 mph94%29.95 "HgN/A
10:00 PM57 °FLight rain. Mostly cloudy.6 mph94%29.95 "Hg5 mi
9:30 PM57 °FLight rain. Mostly cloudy.8 mph94%29.95 "Hg4 mi
9:00 PM57 °FLight rain. Mostly cloudy.8 mph94%29.95 "Hg5 mi
Weather by CustomWeather, © 2015

See weather overviewHow to use our weather pages